202P/Scotti (2024)

Japanese version
Home page
Updated on May 13, 2024

---------------------------------------------------------------------

* Profile

* Pictures

* Orbital Elements

Epoch 2023 Sept. 13.0 TT = JDT 2460200.5
T 2024 May 17.15673 TT                                  Rudenko
q   3.0692109            (2000.0)            P               Q
n   0.11809440     Peri.  274.44220     -0.03118241     -0.99951221
a   4.1144947      Node   177.34286     +0.93122077     -0.02968158
e   0.2540491      Incl.    2.14195     +0.36311918     -0.00971334
P   8.35
>From 460 observations 2001 Dec. 10-2023 Dec. 4, mean residual 0".7.
     Nongravitational parameters A1 = +0.08, A2 = +0.0157.

* Magnitudes Graph

        m1 = 13.0 + 5 log d + 10.0 log r

---------------------------------------------------------------------

The orbital elements are published on M.P.E.C. 2023-X256.
The magnitudes graphs are made with Comet for Windows.

---------------------------------------------------------------------

Copyright(C) Seiichi Yoshida (comet@aerith.net). All rights reserved.